Location: Wangen+im+Allg�u
(47.7098°N, 9.8383°E)
Time: 03:34:25
(UTC+01:00)

Envisat - Visible Passes

Search period start: 22 January 2018 00:00
Search period end: 01 February 2018 00:00
Orbit: 764 x 766 km, 98.2° (Epoch: 21 January)

Date Brightness Start Highest point End Pass type
(mag) Time Alt. Az. Time Alt. Az. Time Alt. Az.
22 Jan 6.3 07:13:32 10° ENE 07:14:36 11° E 07:15:41 10° E visible
22 Jan 4.1 18:33:12 22° ENE 18:33:44 22° ENE 18:37:36 10° NNE visible
22 Jan 3.7 20:13:23 49° NW 20:13:23 49° NW 20:17:24 10° NNW visible
23 Jan 4.8 17:55:47 10° ENE 17:57:32 12° NE 17:59:20 10° NNE visible
23 Jan 2.9 19:35:58 66° NE 19:35:58 66° NE 19:40:42 10° N visible
23 Jan 5.6 21:16:09 17° WNW 21:16:09 17° WNW 21:18:30 10° NW visible
24 Jan 3.5 18:58:32 33° E 18:59:05 34° ENE 19:03:39 10° N visible
24 Jan 4.5 20:38:43 34° W 20:38:43 34° W 20:42:45 10° NNW visible
25 Jan 4.3 18:21:06 16° E 18:22:44 19° ENE 18:26:10 10° NNE visible
25 Jan 3.1 20:01:17 73° W 20:01:17 73° W 20:06:19 10° NNW visible
26 Jan 3.0 19:23:51 51° ESE 19:24:32 56° ENE 19:29:30 10° N visible
26 Jan 5.2 21:04:01 21° W 21:04:01 21° W 21:07:46 10° NW visible
27 Jan 3.8 18:46:23 24° E 18:48:03 29° ENE 18:52:22 10° N visible
27 Jan 4.0 20:26:35 43° WSW 20:26:53 43° W 20:31:45 10° NNW visible
28 Jan 4.5 18:08:56 10° E 18:11:45 15° ENE 18:14:39 10° NNE visible
28 Jan 2.9 19:49:07 60° SSE 19:50:04 89° WSW 19:55:12 10° NNW visible
28 Jan 5.8 21:29:18 13° W 21:29:50 13° W 21:32:02 10° WNW visible
29 Jan 3.2 19:11:39 32° ESE 19:13:27 45° ENE 19:18:18 10° N visible
29 Jan 4.9 20:51:49 25° WSW 20:52:40 26° W 20:56:56 10° NW visible
30 Jan 6.2 07:16:12 10° ENE 07:18:01 12° E 07:19:49 10° ESE visible
30 Jan 4.0 18:34:10 15° ESE 18:37:01 24° ENE 18:41:01 10° N visible
30 Jan 3.6 20:14:21 42° SSW 20:15:42 54° W 20:20:43 10° NNW visible
31 Jan 4.7 17:58:36 10° E 18:00:47 13° NE 18:02:58 10° NNE visible
31 Jan 2.8 19:36:52 36° SSE 19:38:57 75° ENE 19:44:02 10° N visible
31 Jan 5.6 21:17:03 14° WSW 21:18:32 16° W 21:21:38 10° NW visible
